CINOVEC Weather Reports


Display with metric or nautical units.
time (UTC)temp
F
wind
direction
speed
MPH
gust
MPH
rain 1hr
in
rain 24hr
in
rain mn
in
humidity
%
barometer
mb
20260505171729 54 350 12.0 18.0 0.00 0.00 0.00 93
20260505161828 55 350 12.0 0.0 0.00 0.00 0.00 93
20260505151727 57 350 13.0 0.0 0.00 0.00 0.00 82
20260505121728 61 10 13.0 0.0 0.00 0.00 0.00 67
20260505111729 61 350 10.0 0.0 0.00 0.00 0.00 67
20260505101729 59 350 10.0 0.0 0.00 0.00 0.00 72
20260505091728 59 350 7.0 0.0 0.00 0.00 0.00 72
20260505081729 57 360 9.0 0.0 0.00 0.00 0.00 71
20260505071728 55 320 6.0 0.0 0.00 0.00 0.00 82
20260505061729 54 340 6.0 0.0 0.00 0.00 0.00 81
20260505051728 54 10 6.0 0.0 0.00 0.00 0.00 76
20260505041728 54 350 8.0 0.0 0.00 0.00 0.00 76
20260505031728 54 350 9.0 0.0 0.00 0.00 0.00 76
20260505021729 54 350 7.0 0.0 0.00 0.00 0.00 76
20260505011729 54 360 7.0 0.0 0.00 0.00 0.00 76
20260505001729 55 360 8.0 0.0 0.00 0.00 0.00 71
20260504231729 55 40 8.0 0.0 0.00 0.00 0.00 71
20260504221729 55 20 8.0 0.0 0.00 0.00 0.00 71
20260504211728 55 20 7.0 0.0 0.00 0.00 0.00 71
20260504201727 55 20 7.0 0.0 0.00 0.00 0.00 71
20260504191728 55 360 7.0 0.0 0.00 0.00 0.00 71
20260504181729 59 360 8.0 0.0 0.00 0.00 0.00 62